When you browse on this site, cookies collect data to enhance your experience and personalize the content and advertising you see.
Visit our Privacy Policy to learn more. By continuing to use the site, you agree to this use of cookies and data.
  • Em Portugal
  • Lista de países
  • Para 7 dias
  • Temperatura da água
  • Mapas de satélite
  • Mapa do tempo
  • Widgets de tempo
  • user-avatar
    Iniciar Sessão

    Previsão horária em Veliko Tarnovo

    Hoje, 21 Abril, Domingo

    Tempo Temperatura Precipitação Vento Pressão Humidade
    00:00 +5°C° 0 mm 1 m/s 746 mmHg 65%
    01:00 +5°C° 0 mm 1 m/s 746 mmHg 65%
    02:00 +5°C° 0 mm 1 m/s 746 mmHg 65%
    03:00 +5°C° 0 mm 1 m/s 746 mmHg 65%
    04:00 +5°C° 0 mm 1 m/s 745 mmHg 64%
    05:00 +4°C° 0 mm 1 m/s 745 mmHg 64%
    06:00 +6°C° 0 mm 1 m/s 745 mmHg 61%
    07:00 +9°C° 0 mm 1 m/s 745 mmHg 57%
    08:00 +11°C° 0 mm 1 m/s 745 mmHg 54%
    09:00 +12°C° 0 mm 1 m/s 745 mmHg 50%
    10:00 +13°C° 0 mm 0 m/s 745 mmHg 46%
    11:00 +15°C° 0 mm 0 m/s 744 mmHg 42%
    12:00 +16°C° 0 mm 1 m/s 744 mmHg 42%
    13:00 +18°C° 0 mm 1 m/s 744 mmHg 41%
    14:00 +18°C° 0 mm 1 m/s 743 mmHg 41%
    15:00 +18°C° 0 mm 1 m/s 743 mmHg 43%
    16:00 +16°C° 0 mm 1 m/s 742 mmHg 46%
    17:00 +16°C° 0 mm 1 m/s 742 mmHg 48%
    18:00 +14°C° 0 mm 1 m/s 742 mmHg 53%
    19:00 +12°C° 0 mm 2 m/s 742 mmHg 59%
    20:00 +10°C° 0 mm 2 m/s 742 mmHg 64%
    21:00 +9°C° 0 mm 2 m/s 742 mmHg 66%
    22:00 +9°C° 0 mm 2 m/s 742 mmHg 68%
    23:00 +8°C° 0 mm 3 m/s 742 mmHg 71%

    Amanhã, 22 Abril, Segunda-feira

    Tempo Temperatura Precipitação Vento Pressão Humidade
    00:00 +8°C° 0 mm 3 m/s 742 mmHg 71%
    01:00 +8°C° 0 mm 3 m/s 742 mmHg 71%
    02:00 +7°C° 0 mm 3 m/s 742 mmHg 71%
    03:00 +7°C° 0 mm 3 m/s 742 mmHg 71%
    04:00 +7°C° 0 mm 2 m/s 741 mmHg 71%
    05:00 +7°C° 0 mm 2 m/s 741 mmHg 71%
    06:00 +8°C° 0 mm 2 m/s 741 mmHg 68%
    07:00 +10°C° 0 mm 2 m/s 741 mmHg 65%
    08:00 +13°C° 0 mm 2 m/s 741 mmHg 62%
    09:00 +15°C° 0 mm 2 m/s 741 mmHg 57%
    10:00 +16°C° 0 mm 2 m/s 741 mmHg 51%
    11:00 +18°C° 0 mm 3 m/s 741 mmHg 45%
    12:00 +19°C° 0 mm 3 m/s 741 mmHg 45%
    13:00 +19°C° 0 mm 3 m/s 741 mmHg 44%
    14:00 +20°C° 0 mm 3 m/s 741 mmHg 44%
    15:00 +19°C° 0 mm 3 m/s 741 mmHg 48%
    16:00 +19°C° 0 mm 4 m/s 741 mmHg 52%
    17:00 +18°C° 0 mm 4 m/s 740 mmHg 56%
    18:00 +15°C° 0 mm 4 m/s 741 mmHg 63%
    19:00 +14°C° 0 mm 4 m/s 741 mmHg 70%
    20:00 +12°C° 0 mm 5 m/s 741 mmHg 76%
    21:00 +10°C° 0 mm 5 m/s 741 mmHg 77%
    22:00 +9°C° 0 mm 5 m/s 742 mmHg 77%
    23:00 +9°C° 0 mm 5 m/s 742 mmHg 77%

    Depois de amanhã, 23 Abril, Terça-feira

    Tempo Temperatura Precipitação Vento Pressão Humidade
    00:00 +8°C° 0 mm 5 m/s 742 mmHg 74%
    01:00 +8°C° 0 mm 5 m/s 742 mmHg 72%
    02:00 +8°C° 0 mm 5 m/s 742 mmHg 69%
    03:00 +8°C° 0 mm 4 m/s 742 mmHg 65%
    04:00 +8°C° 0 mm 4 m/s 742 mmHg 62%
    05:00 +8°C° 0 mm 4 m/s 743 mmHg 58%
    06:00 +8°C° 0 mm 4 m/s 743 mmHg 60%
    07:00 +8°C° 0 mm 4 m/s 743 mmHg 63%
    08:00 +8°C° 0 mm 5 m/s 743 mmHg 65%
    09:00 +9°C° 0 mm 5 m/s 743 mmHg 63%
    10:00 +10°C° 0 mm 6 m/s 743 mmHg 60%
    11:00 +11°C° 0 mm 7 m/s 743 mmHg 58%
    12:00 +12°C° 0 mm 7 m/s 743 mmHg 56%
    13:00 +14°C° 0 mm 7 m/s 743 mmHg 55%
    14:00 +15°C° 0 mm 7 m/s 743 mmHg 53%
    15:00 +15°C° 0 mm 6 m/s 742 mmHg 56%
    16:00 +15°C° 0 mm 6 m/s 742 mmHg 58%
    17:00 +15°C° 0 mm 6 m/s 742 mmHg 61%
    18:00 +13°C° 0 mm 5 m/s 742 mmHg 65%
    19:00 +12°C° 0 mm 5 m/s 742 mmHg 68%
    20:00 +10°C° 0 mm 5 m/s 742 mmHg 71%
    21:00 +11°C° 0 mm 4 m/s 743 mmHg 70%
    22:00 +11°C° 0 mm 4 m/s 743 mmHg 68%
    23:00 +11°C° 0 mm 4 m/s 743 mmHg 67%

    24 Abril, Quarta-feira

    Tempo Temperatura Precipitação Vento Pressão Humidade
    00:00 +10°C° 0 mm 4 m/s 743 mmHg 67%
    01:00 +10°C° 0 mm 3 m/s 743 mmHg 68%
    02:00 +10°C° 0 mm 2 m/s 743 mmHg 68%
    03:00 +9°C° 0 mm 2 m/s 743 mmHg 71%
    04:00 +8°C° 0 mm 2 m/s 743 mmHg 74%
    05:00 +8°C° 0 mm 1 m/s 743 mmHg 76%
    06:00 +10°C° 0 mm 1 m/s 744 mmHg 72%
    07:00 +12°C° 0 mm 1 m/s 744 mmHg 67%
    08:00 +13°C° 0 mm 0 m/s 745 mmHg 63%
    09:00 +16°C° 0 mm 1 m/s 745 mmHg 59%
    10:00 +19°C° 0 mm 1 m/s 745 mmHg 55%
    11:00 +21°C° 0 mm 1 m/s 745 mmHg 51%
    12:00 +22°C° 0 mm 1 m/s 745 mmHg 50%
    13:00 +23°C° 0 mm 1 m/s 745 mmHg 49%
    14:00 +24°C° 0 mm 2 m/s 744 mmHg 47%
    15:00 +23°C° 0 mm 2 m/s 744 mmHg 50%
    16:00 +23°C° 0 mm 2 m/s 744 mmHg 53%
    17:00 +23°C° 0 mm 2 m/s 744 mmHg 56%
    18:00 +20°C° 0 mm 3 m/s 744 mmHg 64%
    19:00 +18°C° 0 mm 3 m/s 744 mmHg 72%
    20:00 +16°C° 0 mm 3 m/s 744 mmHg 80%
    21:00 +14°C° 0 mm 3 m/s 744 mmHg 81%
    22:00 +13°C° 0 mm 3 m/s 745 mmHg 82%
    23:00 +13°C° 0 mm 2 m/s 745 mmHg 83%

    25 Abril, Quinta-feira

    Tempo Temperatura Precipitação Vento Pressão Humidade
    00:00 +13°C° 0 mm 2 m/s 745 mmHg 83%
    01:00 +13°C° 0 mm 2 m/s 745 mmHg 83%
    02:00 +12°C° 0 mm 2 m/s 745 mmHg 83%
    03:00 +12°C° 0 mm 2 m/s 745 mmHg 83%
    04:00 +12°C° 0 mm 2 m/s 745 mmHg 84%
    05:00 +11°C° 0 mm 1 m/s 745 mmHg 84%
    06:00 +13°C° 0 mm 1 m/s 745 mmHg 79%
    07:00 +15°C° 0 mm 1 m/s 745 mmHg 73%
    08:00 +18°C° 0 mm 1 m/s 746 mmHg 68%
    09:00 +20°C° 0 mm 1 m/s 746 mmHg 62%
    10:00 +21°C° 0 mm 1 m/s 746 mmHg 56%
    11:00 +23°C° 0 mm 1 m/s 746 mmHg 50%
    12:00 +24°C° 0 mm 1 m/s 745 mmHg 48%
    13:00 +25°C° 0 mm 1 m/s 745 mmHg 46%
    14:00 +26°C° 0 mm 1 m/s 745 mmHg 44%
    15:00 +25°C° 0 mm 1 m/s 745 mmHg 47%
    16:00 +25°C° 0 mm 2 m/s 744 mmHg 50%
    17:00 +25°C° 0 mm 2 m/s 744 mmHg 53%
    18:00 +21°C° 0 mm 2 m/s 744 mmHg 61%
    19:00 +19°C° 0 mm 3 m/s 744 mmHg 70%
    20:00 +16°C° 0 mm 3 m/s 744 mmHg 78%
    21:00 +16°C° 0 mm 3 m/s 744 mmHg 78%
    22:00 +14°C° 0 mm 3 m/s 744 mmHg 77%
    23:00 +13°C° 0 mm 3 m/s 744 mmHg 77%

    26 Abril, Sexta-feira

    Tempo Temperatura Precipitação Vento Pressão Humidade
    00:00 +12°C° 0 mm 3 m/s 744 mmHg 74%
    01:00 +13°C° 0 mm 2 m/s 743 mmHg 72%
    02:00 +13°C° 0 mm 2 m/s 743 mmHg 69%
    03:00 +13°C° 0 mm 2 m/s 743 mmHg 70%
    04:00 +13°C° 0 mm 2 m/s 743 mmHg 70%
    05:00 +12°C° 0 mm 2 m/s 743 mmHg 71%
    06:00 +14°C° 0 mm 2 m/s 743 mmHg 69%
    07:00 +15°C° 0 mm 2 m/s 743 mmHg 68%
    08:00 +17°C° 0 mm 2 m/s 743 mmHg 66%
    09:00 +19°C° 0 mm 2 m/s 743 mmHg 62%
    10:00 +20°C° 0 mm 2 m/s 743 mmHg 58%
    11:00 +23°C° 0 mm 2 m/s 742 mmHg 55%
    12:00 +24°C° 0 mm 2 m/s 742 mmHg 53%
    13:00 +25°C° 0 mm 2 m/s 741 mmHg 51%
    14:00 +26°C° 0 mm 2 m/s 741 mmHg 49%
    15:00 +25°C° 0 mm 2 m/s 740 mmHg 52%
    16:00 +25°C° 0 mm 2 m/s 740 mmHg 54%
    17:00 +24°C° 0 mm 2 m/s 740 mmHg 57%
    18:00 +21°C° 0 mm 3 m/s 740 mmHg 63%
    19:00 +19°C° 0 mm 3 m/s 739 mmHg 68%
    20:00 +17°C° 0 mm 3 m/s 739 mmHg 74%
    21:00 +16°C° 0 mm 3 m/s 739 mmHg 71%
    22:00 +14°C° 0 mm 3 m/s 739 mmHg 69%
    23:00 +14°C° 0 mm 3 m/s 739 mmHg 66%
    Mostrar mais